Kuwait, Kuwait

12:19 PM +03 on February 18, 2018 (GMT +0300)
Kuwait International

Weather History for OKBK - November, 2013

Change the Weather History Date:

Monday, November 18, 2013

  Actual Average Record
Temperature  
Mean Temperature 68 °F -  
Max Temperature 75 °F 73 °F 102 °F (2004)
Min Temperature 62 °F 51 °F 44 °F (2003)
Cooling Degree Days 4    
Growing Degree Days 18 (Base 50)    
Moisture  
Dew Point 62 °F    
Average Humidity 81    
Maximum Humidity 100    
Minimum Humidity 53    
Precipitation  
Precipitation 0.00 in 0.02 in - ()
Sea Level Pressure  
Sea Level Pressure 29.96 in    
Wind  
Wind Speed 8 mph ()    
Max Wind Speed 21 mph    
Max Gust Speed 34 mph    
Visibility 4.0 miles    
Events Rain , Thunderstorm    
Averages and records for this station are not official NWS values.
T = Trace of Precipitation, MM = Missing Value Source: Averaged Metar Reports

Daily Weather History Graph

Daily Weather History Graph

Search for Another Location

Airport or City:

Trip Planner

Search our weather history database for the weather conditions in past years. The results will help you decide how hot, cold, wet, or windy it might be!

Date:

Astronomy

Nov. 18, 2013 Rise Set
Actual Time 6:14 AM +03 4:52 PM +03
Civil Twilight 5:48 AM +03 5:17 PM +03
Nautical Twilight 5:20 AM +03 5:46 PM +03
Astronomical Twilight 4:51 AM +03 6:14 PM +03
Moon 5:37 PM +03 6:42 AM +03
Length of Visible Light 11h 28m
Length of Day
10h 38m
Waxing Gibbous, 99% of the Moon is Illuminated
Nov 18
Waxing Gibbous
Nov 25
Last Quarter
Dec 3
New
Dec 9
First Quarter
Dec 17
Full

Hourly Weather History & Observations

Time (+03) Temp. Dew Point Humidity Pressure Visibility Wind Dir Wind Speed Gust Speed Precip Events Conditions
12:00 AM 68 °F 60 °F 69% 29.98 in 6 mi South 4.6 mph - -   Scattered Clouds
12:00 AM 68.0 °F 60.8 °F 78% 29.98 in 6.2 mi South 4.6 mph - N/A   Mostly Cloudy
1:00 AM 68.0 °F 60.8 °F 78% 29.95 in 6.2 mi SSE 6.9 mph - N/A   Mostly Cloudy
2:00 AM 66.2 °F 59.0 °F 78% 29.95 in 6.2 mi SSE 5.8 mph - N/A   Mostly Cloudy
3:00 AM 65 °F 59 °F 76% 29.96 in 6 mi South 5.8 mph - - Thunderstorm Thunderstorm
3:00 AM 66.2 °F 59.0 °F 78% 29.95 in 6.2 mi South 5.8 mph - N/A Thunderstorm Light Thunderstorm
4:00 AM 64.4 °F 59.0 °F 83% 29.95 in 6.2 mi Calm Calm - N/A Thunderstorm Light Thunderstorm
5:00 AM 68.0 °F 60.8 °F 78% 29.95 in 5.0 mi Calm Calm - N/A   Mostly Cloudy
6:00 AM 68 °F 63 °F 80% 29.96 in 5 mi East 3.5 mph - -   Partly Cloudy
6:00 AM 68.0 °F 62.6 °F 83% 29.95 in 5.0 mi East 3.5 mph - N/A   Mostly Cloudy
7:00 AM 69.8 °F 62.6 °F 78% 29.95 in 4.3 mi ESE 10.4 mph - N/A   Mostly Cloudy
8:00 AM 68.0 °F 62.6 °F 83% 29.98 in 3.7 mi South 9.2 mph - N/A Rain Rain
8:30 AM 69.8 °F 62.6 °F 78% 29.98 in 5.0 mi South 6.9 mph - N/A   Mostly Cloudy
9:00 AM 71 °F 65 °F 76% 29.99 in 4 mi South 9.2 mph - - Rain Light Rain
9:00 AM 71.6 °F 64.4 °F 78% 29.98 in 4.3 mi South 9.2 mph - N/A   Mostly Cloudy
10:00 AM 73.4 °F 62.6 °F 69% 29.98 in 4.3 mi South 15.0 mph - N/A   Mostly Cloudy
11:00 AM 75.2 °F 57.2 °F 53% 29.98 in 5.0 mi South 19.6 mph - N/A   Light Blowing Widespread Dust
12:00 PM 73 °F 60 °F 55% 29.99 in 4 mi ENE 8.1 mph - - Rain Rain
12:00 PM 73.4 °F 60.8 °F 65% 29.98 in 4.3 mi ENE 8.1 mph - N/A Rain Rain
1:00 PM 69.8 °F 62.6 °F 78% 29.92 in 4.3 mi North 13.8 mph - N/A Rain Rain
2:00 PM 66.2 °F 62.6 °F 88% 29.92 in 3.7 mi North 15.0 mph - N/A Rain Rain
2:04 PM - - N/A% - 2.5 mi North 17.3 mph - N/A Rain Rain
2:26 PM - - N/A% - 1.2 mi North 17.3 mph - N/A Rain , Thunderstorm Light Thunderstorms and Rain
3:00 PM 63 °F 62 °F 94% 29.94 in 0 mi North 16.1 mph - - Rain , Thunderstorm Thunderstorms and Rain
3:00 PM 62.6 °F 62.6 °F 100% 29.92 in 0.3 mi North 16.1 mph - N/A Rain , Thunderstorm Light Thunderstorms and Rain
3:06 PM - - N/A% - 0.2 mi NW 20.7 mph - N/A Thunderstorm Light Thunderstorm
3:10 PM - - N/A% - 0.2 mi NW 20.7 mph - N/A Thunderstorm Light Thunderstorm
4:00 PM 62.6 °F 62.6 °F 100% 29.92 in 1.2 mi NE 13.8 mph - N/A   Overcast
5:00 PM 64.4 °F 62.6 °F 94% 29.92 in 1.6 mi ESE 5.8 mph - N/A Thunderstorm Light Thunderstorm
5:30 PM 64.4 °F 62.6 °F 94% 29.95 in 2.5 mi NE 6.9 mph 34.5 mph N/A Rain , Thunderstorm Light Thunderstorms and Rain
6:00 PM 66 °F 62 °F 82% 29.96 in 4 mi ENE 6.9 mph - -   Mist
6:00 PM 66.2 °F 62.6 °F 88% 29.95 in 4.3 mi ENE 6.9 mph - N/A   Mostly Cloudy
7:00 PM 66.2 °F 62.6 °F 88% 29.98 in 4.3 mi WSW 9.2 mph - N/A Thunderstorm Light Thunderstorm
8:00 PM 66.2 °F 60.8 °F 83% 29.95 in 4.3 mi East 8.1 mph - N/A   Mostly Cloudy
9:00 PM 68 °F 63 °F 78% 29.99 in 6 mi East 10.4 mph - -   Scattered Clouds
9:00 PM 68.0 °F 62.6 °F 83% 29.98 in 6.2 mi East 10.4 mph - N/A   Mostly Cloudy
10:00 PM 68.0 °F 64.4 °F 88% 29.98 in 3.7 mi ESE 12.7 mph - N/A Rain Light Rain
11:00 PM 68.0 °F 64.4 °F 88% 29.98 in 4.3 mi East 11.5 mph - N/A Rain Light Rain